Old Res Weather

Lexington, Massachusetts, USA

84°F
6/18/2024 10:11am 
  • Lexington Conditions: Clear
  • Temperature: 84.4°F / 29.1°CWarmer 8.8°F than last hour.
  • Dew Point: 73.9°FIncreased 4.6°Fsince last hour.
  • Relative Humidity: 71%Decreased 10.0% since last hour.
  • Wind: Calm, 10-min avg: Calm, gust: None
  • Barometer: 30.22 in Steady
  • Visibility: 10 miles
  • Rain Today: 0.00 in
  • UV Index: $VPuv  Medium 
  •   
Southeast Middlesex County, MA - Heat Advisory - Excessive Heat Watch
 - SEE ALL NEARBY ALERTS -

Regional Weather Roundup
for Boston, MA

        
000
ASUS41 KBOX 181310
RWRBOX

REGIONAL WEATHER ROUNDUP
NATIONAL WEATHER SERVICE BOSTON/NORTON MA
900 AM EDT TUE JUN 18 2024

NOTE:  "FAIR" INDICATES FEW OR NO CLOUDS BELOW 12,000 FEET WITH NO 
SIGNIFICANT WEATHER AND/OR OBSTRUCTIONS TO VISIBILITY.

MAZALL-181400-
EASTERN MASSACHUSETTS
  
CITY           SKY/WX    TMP DP  RH WIND       PRES   REMARKS
BOSTON         PTSUNNY   76  65  68 SW8       30.21R                  
BEVERLY        MOSUNNY   76  66  71 W6        30.20R                  
LAWRENCE       CLOUDY    73  64  73 SW5       30.23R                  
BEDFORD        CLOUDY    74  65  73 VRB3      30.20R                  
NORWOOD        MOSUNNY   79  68  69 SW9       30.22R                  
MARSHFIELD     CLOUDY    75  66  73 SW6G14    30.21R                  
PLYMOUTH       PTSUNNY   77  66  68 SW9       30.22R                  
TAUNTON        MOSUNNY   77  66  68 SW6       30.23R                  
NEW BEDFORD    MOSUNNY   76  68  76 W9        30.23R                  
$$

MAZALL-181400-
CAPE COD AND THE ISLANDS
  
CITY           SKY/WX    TMP DP  RH WIND       PRES   REMARKS
FALMOUTH       SUNNY     73  66  78 SW14G23   30.26R                  
HYANNIS        PTSUNNY   73  66  78 SW14G23   30.22R                  
CHATHAM        CLOUDY    71  66  84 SW9       30.25R                  
PROVINCETOWN   PTSUNNY   69  66  90 SW12      30.24R                  
NANTUCKET      MOSUNNY   67  64  90 SW13      30.28R                  
MARTHAS VNYRD  MOSUNNY   73  67  81 SW12G24   30.26R                  
$$
 
MAZALL-181400-
CENTRAL AND WESTERN MASSACHUSETTS
  
CITY           SKY/WX    TMP DP  RH WIND       PRES   REMARKS
WORCESTER      SUNNY     76  66  71 W9        30.25R                  
FITCHBURG      SUNNY     81  66  60 W7        30.22R                  
ORANGE         SUNNY     75  64  68 SE5       30.24R                  
SPRINGFIELD    MOSUNNY   75  65  70 S5        30.20R                  
WESTFIELD      SUNNY     73  66  78 CALM      30.23R                  
NORTH ADAMS    SUNNY     77  68  73 E5        30.23R                  
PITTSFIELD     SUNNY     75  66  73 CALM      30.24R                  
$$
 
RIZALL-181400-
RHODE ISLAND
  
CITY           SKY/WX    TMP DP  RH WIND       PRES   REMARKS
PROVIDENCE     PTSUNNY   75  67  76 SW7       30.24R                  
NEWPORT        MOSUNNY   72  65  78 VRB3      30.24R                  
BLOCK ISLAND   CLOUDY    68  64  87 SW17      30.27R                  
SMITHFIELD     MOSUNNY   75  69  81 SW7       30.24R                  
WESTERLY       MOSUNNY   73  65  75 SW7       30.26R                  
$$
 
CTZALL-181400-
CONNECTICUT
  
CITY           SKY/WX    TMP DP  RH WIND       PRES   REMARKS
BRADLEY INTL   MOSUNNY   79  66  64 SE6       30.23R                  
HARTFORD       SUNNY     78  67  68 S3        30.23R                  
PLAINVILLE     SUNNY     77  68  72 S6        30.23R                  
BRIDGEPORT     SUNNY     74  65  73 SW7       30.25R                  
DANBURY        SUNNY     78  66  66 W5        30.26R                  
GROTON         MOSUNNY   75  67  76 SW10      30.25R                  
NEW HAVEN      MOSUNNY   74  66  76 SW8       30.25R                  
CHESTER        MOSUNNY   75  68  78 VRB5      30.26R                  
MERIDEN        SUNNY     76  64  66 S9        30.24R                  
WILLIMANTIC    MOSUNNY   75  66  73 VRB6      30.25R                  
OXFORD         SUNNY     75  67  76 VRB5      30.27R                  
$$

MEZ002-015-021-024-NHZ003-005-008-011-012-014-VTZ005-008-181400-
NORTHERN NEW ENGLAND
  
CITY           SKY/WX    TMP DP  RH WIND       PRES   REMARKS
PORTLAND ME    PTSUNNY   74  66  76 CALM      30.19R                  
BANGOR ME      MOSUNNY   69  61  75 SE5       30.19R                  
CONCORD NH     SUNNY     75  65  70 SW3       30.21R                  
MANCHESTER NH  PTSUNNY   75  63  66 CALM      30.20R                  
NASHUA NH      MOSUNNY   76  69  79 CALM      30.22R                  
PORTSMOUTH NH  NOT AVBL                                               
JAFFREY NH     SUNNY     75  64  68 S6        30.25R                  
KEENE NH       SUNNY     72  64  76 CALM      30.23R                  
BURLINGTON VT  PTSUNNY   80  67  64 S10G21    30.18R                  
MT. WASHINGTON MOSUNNY   59  55  88 W15         N/A                   
$$

NYZ052-076-181400-
EASTERN NEW YORK
  
CITY           SKY/WX    TMP DP  RH WIND       PRES   REMARKS
ALBANY         MOSUNNY   78  68  71 S6        30.21R                  
NEW YORK CITY  MOSUNNY   78  62  57 SW6       30.24R                  
$$
 
ANZALL-181400-
MARINE OBSERVATIONS
  
STATION/POSITION TIME  TEMP    WIND        PRES    VSBY  WAVE
                       AIR SEA DIR/SP/G                  HT/PER
                 (UTC) (F)     (DEG/KT/KT) (MB)    (MI)  (FT/S)
BOSTON BUOY      1250   64 62  210/  4/  6 1023.2R         1/10
BUZZARDS BAY     1200   66     230/ 18/ 20 1024.5R
NANTUCKET SOUND  1250   69 68  230/ 16/ 19 1023.8R         1/ 3
MASS BAY-STELLWA 1104   64 61  210/  8/ 10 1022.6R  1 7/8  1/ 5
ISLE OF SHOALS   1200   68     230/  9/  9 1021.8R
S OF BLOCK IS    1256      66                N/A           3/ 5
$$

......................KEY.........................
  SKY/WX - SKY CONDITION/PRESENT WEATHER
  TMP    - TEMPERATURE IN FAHRENHEIT
  DWPT   - DEWPOINT IN FAHRENHEIT
  RH     - RELATIVE HUMIDITY IN PERCENT
  WIND   - DIRECTION AND SPEED IN MPH
  PRES   - MEAN SEA LEVEL PRESSURE IN INCHES OF HG
  WCI    - WIND CHILL INDEX
  VSB    - VISIBILITY IN MILES
  HX     - HEAT INDEX
  TC     - TEMPERATURE IN CELSIUS
  VRB    - VARIABLE WIND DIRECTION
  N/A    - NOT AVAILABLE
  
      

Other recent Regional Weather Roundups

Tue Jun 18, 8:10am EDT

Tue Jun 18, 7:10am EDT

Tue Jun 18, 6:10am EDT

Tue Jun 18, 5:10am EDT

Tue Jun 18, 4:10am EDT

Tue Jun 18, 3:10am EDT

Tue Jun 18, 2:10am EDT

Tue Jun 18, 1:10am EDT

Tue Jun 18, 12:10am EDT

Mon Jun 17, 11:10pm EDT

Mon Jun 17, 10:10pm EDT

Mon Jun 17, 9:10pm EDT

Mon Jun 17, 8:10pm EDT

Mon Jun 17, 7:10pm EDT

Mon Jun 17, 6:10pm EDT

Mon Jun 17, 5:10pm EDT

Mon Jun 17, 4:10pm EDT

Mon Jun 17, 3:10pm EDT

Mon Jun 17, 2:10pm EDT

Mon Jun 17, 1:10pm EDT

Mon Jun 17, 12:10pm EDT

Mon Jun 17, 11:10am EDT

Mon Jun 17, 10:10am EDT

Mon Jun 17, 9:10am EDT

Mon Jun 17, 8:10am EDT

Mon Jun 17, 7:10am EDT

Mon Jun 17, 6:10am EDT

Mon Jun 17, 5:10am EDT

Mon Jun 17, 4:10am EDT

Mon Jun 17, 3:10am EDT

Mon Jun 17, 2:10am EDT

Mon Jun 17, 1:10am EDT

Mon Jun 17, 12:10am EDT

Sun Jun 16, 11:10pm EDT

Sun Jun 16, 10:10pm EDT

Sun Jun 16, 9:10pm EDT

Sun Jun 16, 8:10pm EDT

Sun Jun 16, 7:10pm EDT

Sun Jun 16, 6:10pm EDT

Sun Jun 16, 5:10pm EDT

Sun Jun 16, 4:10pm EDT

Sun Jun 16, 3:10pm EDT

Sun Jun 16, 2:10pm EDT

Sun Jun 16, 1:10pm EDT

Sun Jun 16, 12:10pm EDT

Sun Jun 16, 11:10am EDT

Sun Jun 16, 10:10am EDT

Sun Jun 16, 9:10am EDT

Sun Jun 16, 8:10am EDT

Sun Jun 16, 7:10am EDT

Sun Jun 16, 6:10am EDT

Sun Jun 16, 5:10am EDT

Sun Jun 16, 4:10am EDT

Sun Jun 16, 3:10am EDT

Sun Jun 16, 2:10am EDT

Sun Jun 16, 1:10am EDT

Sun Jun 16, 12:10am EDT

Sat Jun 15, 11:10pm EDT

Sat Jun 15, 10:10pm EDT

Sat Jun 15, 9:10pm EDT

Sat Jun 15, 8:10pm EDT

Sat Jun 15, 7:10pm EDT

Sat Jun 15, 6:10pm EDT

Sat Jun 15, 5:10pm EDT

Sat Jun 15, 4:10pm EDT

Sat Jun 15, 3:10pm EDT

Sat Jun 15, 2:10pm EDT

Sat Jun 15, 1:10pm EDT

Sat Jun 15, 12:10pm EDT

Sat Jun 15, 11:10am EDT

Sat Jun 15, 10:10am EDT

Sat Jun 15, 9:10am EDT

Sat Jun 15, 8:10am EDT

Sat Jun 15, 7:10am EDT

Sat Jun 15, 6:10am EDT

Sat Jun 15, 5:10am EDT

Sat Jun 15, 4:10am EDT

Sat Jun 15, 3:10am EDT

Sat Jun 15, 2:10am EDT

Sat Jun 15, 1:10am EDT

Sat Jun 15, 12:10am EDT

Fri Jun 14, 11:10pm EDT

Fri Jun 14, 10:10pm EDT

Fri Jun 14, 9:10pm EDT

Fri Jun 14, 8:10pm EDT

Fri Jun 14, 7:10pm EDT

Fri Jun 14, 6:10pm EDT

Fri Jun 14, 5:10pm EDT

Fri Jun 14, 4:10pm EDT

Fri Jun 14, 3:10pm EDT

Fri Jun 14, 2:10pm EDT

Fri Jun 14, 1:10pm EDT

Fri Jun 14, 12:10pm EDT

Fri Jun 14, 11:10am EDT

Fri Jun 14, 10:10am EDT

Fri Jun 14, 9:10am EDT

Fri Jun 14, 8:10am EDT

Fri Jun 14, 7:10am EDT

Fri Jun 14, 6:10am EDT

Fri Jun 14, 5:10am EDT

Fri Jun 14, 4:10am EDT

Fri Jun 14, 3:10am EDT

Fri Jun 14, 2:10am EDT

Fri Jun 14, 1:10am EDT

Fri Jun 14, 12:10am EDT

Thu Jun 13, 11:10pm EDT

Thu Jun 13, 10:10pm EDT

Thu Jun 13, 9:10pm EDT

Thu Jun 13, 8:10pm EDT

Thu Jun 13, 7:10pm EDT

Thu Jun 13, 6:10pm EDT

Thu Jun 13, 5:10pm EDT

Thu Jun 13, 4:10pm EDT

Thu Jun 13, 3:10pm EDT

Thu Jun 13, 2:10pm EDT

Thu Jun 13, 1:10pm EDT

Thu Jun 13, 12:10pm EDT

Thu Jun 13, 11:10am EDT

Thu Jun 13, 10:10am EDT

Thu Jun 13, 9:10am EDT

Thu Jun 13, 8:10am EDT

Thu Jun 13, 7:10am EDT

Thu Jun 13, 6:10am EDT

Thu Jun 13, 5:10am EDT

Thu Jun 13, 4:10am EDT

Thu Jun 13, 3:10am EDT

Thu Jun 13, 2:10am EDT

Thu Jun 13, 1:10am EDT

Thu Jun 13, 12:10am EDT

Wed Jun 12, 11:10pm EDT

Wed Jun 12, 10:10pm EDT

Wed Jun 12, 9:10pm EDT

Wed Jun 12, 8:10pm EDT

Wed Jun 12, 7:10pm EDT

Wed Jun 12, 6:10pm EDT

Wed Jun 12, 5:10pm EDT

Wed Jun 12, 4:10pm EDT

Wed Jun 12, 3:10pm EDT

Wed Jun 12, 2:10pm EDT

Wed Jun 12, 1:10pm EDT

Wed Jun 12, 12:10pm EDT

Wed Jun 12, 11:10am EDT

Wed Jun 12, 10:10am EDT

Wed Jun 12, 9:10am EDT

Wed Jun 12, 8:10am EDT

Wed Jun 12, 7:10am EDT

Wed Jun 12, 6:10am EDT

Wed Jun 12, 5:10am EDT

Wed Jun 12, 4:10am EDT

Wed Jun 12, 3:10am EDT

Wed Jun 12, 2:10am EDT

Wed Jun 12, 1:10am EDT

Wed Jun 12, 12:10am EDT

Tue Jun 11, 11:10pm EDT

Tue Jun 11, 10:10pm EDT

Tue Jun 11, 9:10pm EDT

Tue Jun 11, 8:10pm EDT

Tue Jun 11, 7:10pm EDT

Tue Jun 11, 6:10pm EDT

Tue Jun 11, 5:10pm EDT

Tue Jun 11, 4:10pm EDT

Tue Jun 11, 3:10pm EDT

Tue Jun 11, 2:10pm EDT

Tue Jun 11, 1:10pm EDT

Tue Jun 11, 12:10pm EDT

Tue Jun 11, 11:10am EDT

Tue Jun 11, 10:10am EDT